Stations météo

Publicité
Perigueux, France (7428): Température de l'air & dewpoint: 13.10.2017 21:00:00 - 19.10.2017 21:00:00 (CEST)Perigueux, France (7428): Vitesse du vent & gusts: 13.10.2017 21:00:00 - 19.10.2017 21:00:00 (CEST)Perigueux, France (7428): Direction du vent: 13.10.2017 21:00:00 - 19.10.2017 21:00:00 (CEST)Perigueux, France (7428): reduced air pressure: 13.10.2017 21:00:00 - 19.10.2017 21:00:00 (CEST)Perigueux, France (7428): visibility: 13.10.2017 21:00:00 - 19.10.2017 21:00:00 (CEST)
Date & Time tt [°C] td [°C] ff [km/h] ff [knt] fx [km/h] fx [knt] dd ppp [hPa] vv [km]
19.10.2017 21:00:00 12,7 12,2 4 2 8 4 W 1012,3 7
19.10.2017 20:00:00 13,4 12,5 4 2 5 3 E 1012,4 7
19.10.2017 19:00:00 16,4 13,5 2 1 16 9 S 1011,9 50
19.10.2017 18:00:00 18,4 13,7 9 5 16 9 WSW 1011,0 55
19.10.2017 17:00:00 18,0 14,1 5 3 13 7 SSW 1010,8 60
19.10.2017 16:00:00 19,8 13,9 5 3 15 8 SSW 1010,7 60
19.10.2017 15:00:00 18,4 14,3 5 3 13 7 SE 1011,2 18
19.10.2017 14:00:00 16,7 14,3 4 2 13 7 SW 1011,4 50
19.10.2017 13:00:00 15,7 14,4 4 2 11 6 SSW 1012,0 5
19.10.2017 12:00:00 15,3 14,3 4 2 11 6 ESE 1011,6 4,2
19.10.2017 11:00:00 15,4 14,3 2 1 5 3 E 1011,2 18
19.10.2017 10:00:00 14,8 14,3 4 2 8 4 E 1011,5 16
19.10.2017 09:00:00 14,5 13,9 4 2 5 3 ESE 1010,9 4,8
19.10.2017 08:00:00 14,9 14,1 2 1 13 7 SW 1010,4 9
19.10.2017 07:00:00 15,0 14,4 9 5 13 7 WSW 1010,3 8
19.10.2017 06:00:00 15,2 14,7 2 1 11 6 S 1010,1 17
19.10.2017 05:00:00 15,1 14,8 2 1 9 5 S 1009,5 19
19.10.2017 04:00:00 14,9 14,6 5 3 11 6 NW 1009,3 14
19.10.2017 03:00:00 15,1 14,6 5 3 8 4 ESE 1009,6 10
19.10.2017 02:00:00 15,1 14,6 4 2 8 4 E 1009,3 5
19.10.2017 01:00:00 15,2 14,7 5 3 9 5 ESE 1009,1 5
19.10.2017 00:00:00 15,5 14,5 0 0 21 11 N 1009,5 30
18.10.2017 23:00:00 16,5 14,9 9 5 24 13 WSW 1009,5 45
18.10.2017 22:00:00 16,3 15,3 11 6 21 11 E 1008,9 18
18.10.2017 21:00:00 16,2 15,4 5 3 22 12 ENE 1009,2 19
18.10.2017 20:00:00 16,7 15,6 5 3 22 12 ENE 1008,8 8
18.10.2017 19:00:00 17,0 14,6 8 4 42 23 SE 1008,7 55
18.10.2017 18:00:00 21,0 16,0 8 4 16 9 SSW 1007,4 15
18.10.2017 17:00:00 24,6 14,1 9 5 21 11 SE 1007,9 60
18.10.2017 16:00:00 25,1 14,8 9 5 21 11 ESE 1008,5 55
18.10.2017 15:00:00 24,1 13,9 5 3 24 13 ESE 1009,1 19
18.10.2017 14:00:00 23,2 13,7 13 7 28 15 ESE 1010,3 19
18.10.2017 13:00:00 22,3 13,9 11 6 24 13 ESE 1011,4 40
18.10.2017 12:00:00 20,5 14,4 9 5 15 8 E 1012,1 28
18.10.2017 11:00:00 16,0 12,9 0 0 4 2 N 1013,3 19
18.10.2017 10:00:00 13,4 12,5 0 0 11 6 N 1013,6 11
18.10.2017 09:00:00 11,8 11,2 2 1 5 3 ESE 1013,8 5
18.10.2017 08:00:00 11,7 10,9 4 2 8 4 SE 1013,8 6
18.10.2017 07:00:00 12,2 11,3 4 2 8 4 ESE 1014,1 8
18.10.2017 06:00:00 12,8 11,4 0 0 5 3 N 1014,2 15
18.10.2017 05:00:00 12,2 11,1 4 2 9 5 E 1014,6 10
18.10.2017 04:00:00 12,2 11,3 5 3 9 5 ESE 1015,2 10
18.10.2017 03:00:00 11,9 11,0 0 0 9 5 N 1015,9 13
18.10.2017 02:00:00 10,9 10,6 2 1 8 4 SE 1016,3 5
18.10.2017 01:00:00 10,4 9,5 2 1 5 3 ESE 1016,6 3,3
18.10.2017 00:00:00 11,6 10,3 0 0 5 3 N 1016,9 13
17.10.2017 23:00:00 11,9 10,6 4 2 5 3 ESE 1017,0 6
17.10.2017 22:00:00 13,0 11,4 2 1 5 3 ESE 1016,4 18
17.10.2017 21:00:00 14,5 12,0 4 2 5 3 ESE 1016,3 17
17.10.2017 20:00:00 17,1 12,2 0 0 11 6 N 1016,1 28
17.10.2017 19:00:00 21,7 12,0 4 2 13 7 ESE 1015,6 55
17.10.2017 18:00:00 23,2 13,1 5 3 21 11 ESE 1015,5 55
17.10.2017 17:00:00 24,0 12,6 13 7 24 13 SE 1016,0 55
17.10.2017 16:00:00 24,4 13,0 11 6 22 12 SE 1016,5 40
17.10.2017 15:00:00 23,8 13,1 9 5 28 15 SSE 1017,1 55
17.10.2017 14:00:00 22,8 13,3 16 9 29 16 ESE 1018,3 55
17.10.2017 13:00:00 21,9 12,7 9 5 22 12 SE 1019,3 55
17.10.2017 12:00:00 20,1 12,6 11 6 24 13 ESE 1019,9 50
17.10.2017 11:00:00 16,4 12,6 8 4 16 9 E 1020,8 40
17.10.2017 10:00:00 12,3 12,1 0 0 5 3 N 1021,5 11
17.10.2017 09:00:00 8,8 8,7 4 2 5 3 ESE 1021,6 2,7
17.10.2017 08:00:00 8,2 8,1 2 1 5 3 ESE 1021,7 0,5
17.10.2017 07:00:00 9,0 8,9 4 2 5 3 E 1021,9 0,1
17.10.2017 06:00:00 9,0 8,9 4 2 5 3 ESE 1022,3 0,4
17.10.2017 05:00:00 10,4 10,2 4 2 8 4 E 1022,7 2,4
17.10.2017 04:00:00 9,4 9,1 2 1 5 3 ESE 1023,3 0,3
17.10.2017 03:00:00 10,1 9,8 0 0 4 2 N 1023,9 0,2
17.10.2017 02:00:00 11,0 10,7 2 1 5 3 SE 1024,0 0,3
17.10.2017 01:00:00 11,5 10,9 4 2 5 3 ESE 1024,1 1,6
17.10.2017 00:00:00 12,3 11,7 0 0 4 2 N 1024,2 0,8
16.10.2017 23:00:00 13,3 12,4 0 0 5 3 N 1023,8 12
16.10.2017 22:00:00 13,7 12,4 4 2 5 3 ESE 1023,3 12
16.10.2017 21:00:00 15,4 13,4 5 3 5 3 E 1023,0 16
16.10.2017 20:00:00 17,8 14,1 0 0 4 2 N 1022,7 50
16.10.2017 19:00:00 21,8 14,4 2 1 8 4 SSE 1022,1 50
16.10.2017 18:00:00 26,0 13,8 4 2 16 9 SSE 1021,8 50
16.10.2017 17:00:00 26,6 14,0 5 3 21 11 SE 1021,9 35
16.10.2017 16:00:00 26,4 13,5 5 3 22 12 SSE 1022,2 45
16.10.2017 15:00:00 25,7 13,2 9 5 24 13 SSE 1022,3 60
16.10.2017 14:00:00 24,7 12,9 11 6 24 13 SSE 1022,5 60
16.10.2017 13:00:00 23,5 13,4 11 6 22 12 SE 1023,1 60
16.10.2017 12:00:00 21,8 12,9 9 5 22 12 SE 1023,4 19
16.10.2017 11:00:00 19,8 13,5 9 5 16 9 ESE 1023,2 40
16.10.2017 10:00:00 14,3 13,7 4 2 5 3 E 1023,5 17
16.10.2017 09:00:00 11,2 11,2 5 3 8 4 ESE 1022,9 4,3
16.10.2017 08:00:00 9,7 9,6 2 1 5 3 ESE 1022,8 0,3
16.10.2017 07:00:00 10,0 9,5 4 2 5 3 E 1022,7 0,2
16.10.2017 06:00:00 11,2 10,7 0 0 5 3 N 1022,4 2,5
16.10.2017 05:00:00 12,2 11,9 4 2 8 4 ESE 1022,3 6
16.10.2017 04:00:00 13,2 12,9 4 2 5 3 ESE 1022,7 16
16.10.2017 03:00:00 12,5 11,9 0 0 5 3 N 1023,1 1,2
16.10.2017 02:00:00 13,6 12,2 4 2 13 7 E 1023,5 15
16.10.2017 01:00:00 14,6 13,1 2 1 5 3 NE 1023,8 29
16.10.2017 00:00:00 14,6 13,5 2 1 8 4 E 1024,0 28
15.10.2017 23:00:00 14,2 13,7 4 2 5 3 ESE 1023,9 0,9
15.10.2017 22:00:00 14,7 13,9 4 2 5 3 ESE 1023,6 5
15.10.2017 21:00:00 16,0 14,7 4 2 5 3 E 1023,4 13
15.10.2017 20:00:00 17,7 15,0 2 1 5 3 ESE 1023,1 40
15.10.2017 19:00:00 21,4 15,7 0 0 8 4 N 1022,3 50
15.10.2017 18:00:00 26,1 15,2 4 2 16 9 SE 1022,1 55
15.10.2017 17:00:00 26,6 15,3 5 3 18 10 SE 1022,1 55
15.10.2017 16:00:00 26,3 15,0 8 4 21 11 SE 1022,6 30
15.10.2017 15:00:00 25,8 15,2 9 5 21 11 SE 1023,0 55
15.10.2017 14:00:00 24,8 15,1 11 6 28 15 SE 1023,5 50
15.10.2017 13:00:00 23,3 15,1 11 6 24 13 SE 1024,3 40
15.10.2017 12:00:00 21,9 14,8 13 7 28 15 ESE 1024,6 60
15.10.2017 11:00:00 19,3 15,4 9 5 18 10 E 1024,8 19
15.10.2017 10:00:00 13,0 12,2 5 3 8 4 E 1025,0 15
15.10.2017 09:00:00 9,5 9,4 2 1 4 2 ESE 1025,1 6
15.10.2017 08:00:00 8,0 7,9 0 0 8 4 N 1024,9 3,0
15.10.2017 07:00:00 8,3 8,2 2 1 4 2 E 1024,9 1,4
15.10.2017 06:00:00 8,2 8,1 5 3 5 3 ESE 1024,8 4,0
15.10.2017 05:00:00 8,6 8,5 0 0 5 3 N 1024,6 4,3
15.10.2017 04:00:00 8,7 8,6 2 1 5 3 ESE 1024,7 2,6
15.10.2017 03:00:00 8,6 8,3 0 0 4 2 N 1024,8 6
15.10.2017 02:00:00 8,9 8,4 0 0 4 2 N 1025,0 3,6
15.10.2017 01:00:00 9,4 8,9 2 1 5 3 ESE 1024,9 4,5
15.10.2017 00:00:00 10,6 10,1 0 0 5 3 N 1024,9 7
14.10.2017 23:00:00 11,3 10,7 0 0 4 2 N 1024,6 9
14.10.2017 22:00:00 12,3 11,2 0 0 9 5 N 1024,2 22
14.10.2017 21:00:00 13,1 11,3 4 2 5 3 ESE 1023,9 19
14.10.2017 20:00:00 15,4 12,3 0 0 5 3 N 1023,5 35
14.10.2017 19:00:00 19,7 13,6 0 0 5 3 N 1023,1 18
14.10.2017 18:00:00 24,8 13,7 5 3 11 6 ESE 1022,9 45
14.10.2017 17:00:00 26,3 12,4 5 3 9 5 E 1023,1 13
14.10.2017 16:00:00 26,1 11,8 5 3 15 8 SSE 1023,4 45
14.10.2017 15:00:00 25,9 11,6 8 4 16 9 ESE 1023,6 45
14.10.2017 14:00:00 23,9 13,1 5 3 9 5 E 1024,5 55
14.10.2017 13:00:00 20,5 13,7 2 1 5 3 N 1025,5 19
14.10.2017 12:00:00 15,4 12,5 0 0 5 3 N 1026,4 35
14.10.2017 11:00:00 13,7 11,2 4 2 5 3 E 1026,7 19
14.10.2017 10:00:00 11,1 10,8 0 0 4 2 N 1026,7 16
14.10.2017 09:00:00 8,5 8,4 0 0 4 2 N 1026,6 11
14.10.2017 08:00:00 7,7 7,6 0 0 4 2 N 1026,0 9
14.10.2017 07:00:00 7,7 7,6 2 1 2 1 ESE 1025,8 6
14.10.2017 06:00:00 7,7 7,4 0 0 4 2 N 1025,9 7
14.10.2017 05:00:00 8,0 7,7 0 0 5 3 N 1025,7 1,4
14.10.2017 04:00:00 8,4 8,3 2 1 5 3 ESE 1025,9 6
14.10.2017 03:00:00 8,8 8,5 2 1 4 2 ESE 1026,1 5
14.10.2017 02:00:00 9,1 8,8 0 0 4 2 N 1025,9 0,3
14.10.2017 01:00:00 9,8 9,3 2 1 4 2 ESE 1025,7 0,4
14.10.2017 00:00:00 10,6 10,1 0 0 4 2 N 1025,7 0,6
13.10.2017 23:00:00 11,3 10,5 0 0 4 2 N 1025,4 7
13.10.2017 22:00:00 13,1 12,3 0 0 4 2 N 1025,1 11
13.10.2017 21:00:00 14,3 12,8 2 1 4 2 ESE 1025,1 19

tt = Température de l'air
td = dewpoint
ff = Vitesse du vent
fx = gusts
dd = Direction du vent
ppp = reduced air pressure
vv = visibility

stations d'obs. à proximité